DW8722 Weather Reports


Display with metric or nautical units.
time (UTC)temp
F
wind
direction
speed
MPH
gust
MPH
rain 1hr
in
rain 24hr
in
rain mn
in
humidity
%
barometer
mb
20260906222912 98 177 5.0 12.0 0.00 0.00 0.00 42 1009.9
20260906221847 99 168 5.0 12.0 0.00 0.00 0.00 42 1009.8
20260906220829 99 133 3.0 10.0 0.00 0.00 0.00 42 1009.9
20260906215754 99 146 5.0 13.0 0.00 0.00 0.00 41 1009.9
20260906214803 100 92 5.0 13.0 0.00 0.00 0.00 41 1009.7
20260906213825 99 132 3.0 10.0 0.00 0.00 0.00 41 1009.8
20260906211741 100 150 7.0 15.0 0.00 0.00 0.00 40 1010.1
20260906210713 100 192 2.0 12.0 0.00 0.00 0.00 41 1010.1
20260906205702 101 127 5.0 11.0 0.00 0.00 0.00 41 1010.4
20260906204652 101 102 5.0 11.0 0.00 0.00 0.00 42 1010.5
20260906203619 100 71 2.0 10.0 0.00 0.00 0.00 41 1010.7
20260906202545 99 101 4.0 10.0 0.00 0.00 0.00 43 1010.9
20260906201541 99 69 5.0 10.0 0.00 0.00 0.00 43 1011.0
20260906200527 99 104 6.0 14.0 0.00 0.00 0.00 44 1011.0
20260906195522 98 120 5.0 14.0 0.00 0.00 0.00 45 1011.2
20260906194458 97 62 5.0 11.0 0.00 0.00 0.00 44 1011.3
20260906193514 98 162 5.0 10.0 0.00 0.00 0.00 46 1011.4
20260906192527 97 135 0.0 10.0 0.00 0.00 0.00 45 1011.6
20260906191551 97 93 3.0 10.0 0.00 0.00 0.00 45 1011.8
20260906190539 98 123 4.0 10.0 0.00 0.00 0.00 44 1011.9
20260906185550 98 81 3.0 10.0 0.00 0.00 0.00 45 1011.9
20260906184543 98 138 4.0 14.0 0.00 0.00 0.00 45 1011.9
20260906182503 99 86 4.0 13.0 0.00 0.00 0.00 44 1012.3
20260906181457 98 167 4.0 13.0 0.00 0.00 0.00 44 1012.4
20260906180500 98 125 4.0 14.0 0.00 0.00 0.00 45 1012.6
20260906175502 98 151 6.0 14.0 0.00 0.00 0.00 45 1012.8
20260906174505 98 123 7.0 13.0 0.00 0.00 0.00 46 1013.0
20260906173509 97 138 7.0 15.0 0.00 0.00 0.00 46 1013.0
20260906170238 95 108 4.0 11.0 0.00 0.00 0.00 50 1013.3
20260906165253 95 80 5.0 11.0 0.00 0.00 0.00 51 1013.4
20260906164304 94 152 4.0 11.0 0.00 0.00 0.00 53 1013.4
20260906163234 93 153 2.0 9.0 0.00 0.00 0.00 55 1013.5
20260906162215 92 109 2.0 9.0 0.00 0.00 0.00 57 1013.5
20260906161159 92 94 2.0 8.0 0.00 0.00 0.00 57 1013.4
20260906160205 91 87 2.0 7.0 0.00 0.00 0.00 57 1013.4
20260906155144 90 118 2.0 6.0 0.00 0.00 0.00 60 1013.4
20260906154127 89 84 1.0 6.0 0.00 0.00 0.00 61 1013.4
20260906153103 89 111 1.0 6.0 0.00 0.00 0.00 64 1013.3
20260906152100 88 100 1.0 0.0 0.00 0.00 0.00 66 1013.3
20260906151036 87 135 0.0 4.0 0.00 0.00 0.00 68 1013.2
20260906150051 86 122 0.0 0.0 0.00 0.00 0.00 73 1013.4
20260906145046 85 132 0.0 0.0 0.00 0.00 0.00 75 1013.3
20260906144058 84 135 0.0 2.0 0.00 0.00 0.00 79 1013.2
20260906143057 83 90 0.0 2.0 0.00 0.00 0.00 82 1013.4
20260906142022 82 35 0.0 2.0 0.00 0.00 0.00 84 1013.4
20260906135813 80 63 0.0 0.0 0.00 0.00 0.00 87 1013.6
20260906133720 78 90 0.0 3.0 0.00 0.00 0.00 90 1013.6
20260906131519 76 98 0.0 0.0 0.00 0.00 0.00 90 1013.6
20260906130528 75 99 0.0 0.0 0.00 0.00 0.00 90 1013.6
20260906125545 75 99 0.0 0.0 0.00 0.00 0.00 91 1013.5
20260906124519 74 99 0.0 0.0 0.00 0.00 0.00 91 1013.2
20260906123539 74 107 0.0 0.0 0.00 0.00 0.00 91 1013.2
20260906122550 74 107 0.0 0.0 0.00 0.00 0.00 90 1013.1
20260906121547 73 107 0.0 0.0 0.00 0.00 0.00 90 1013.0
20260906120540 74 109 0.0 0.0 0.00 0.00 0.00 90 1012.9
20260906114428 74 142 0.0 0.0 0.00 0.00 0.00 90 1012.7
20260906113412 74 142 0.0 0.0 0.00 0.00 0.00 90 1012.8
20260906112400 74 142 0.0 0.0 0.00 0.00 0.00 90 1012.7
20260906105139 74 142 0.0 0.0 0.00 0.00 0.00 90 1012.2
20260906104136 74 142 0.0 0.0 0.00 0.00 0.00 89 1012.2
20260906103123 74 142 0.0 0.0 0.00 0.00 0.00 89 1012.1
20260906102051 74 144 0.0 0.0 0.00 0.00 0.00 89 1012.1
20260906101031 74 146 0.0 0.0 0.00 0.00 0.00 89 1012.1
20260906094841 75 146 0.0 0.0 0.00 0.00 0.00 88 1012.0
20260906093819 75 146 0.0 0.0 0.00 0.00 0.00 87 1012.0
20260906092809 75 146 0.0 0.0 0.00 0.00 0.00 87 1011.8
20260906090558 75 146 0.0 0.0 0.00 0.00 0.00 86 1011.8
20260906085622 76 146 0.0 0.0 0.00 0.00 0.00 86 1011.7
20260906083444 76 146 0.0 0.0 0.00 0.00 0.00 86 1011.6
20260906081315 76 148 0.0 1.0 0.00 0.00 0.00 85 1011.6
20260906080339 76 140 0.0 3.0 0.00 0.00 0.00 85 1011.5
20260906074227 77 156 0.0 0.0 0.00 0.00 0.00 83 1011.4
20260906072140 77 156 0.0 0.0 0.00 0.00 0.00 83 1011.6
20260906071139 78 156 0.0 0.0 0.00 0.00 0.00 82 1011.7
20260906070159 78 156 0.0 0.0 0.00 0.00 0.00 83 1011.8
20260906065202 78 156 0.0 0.0 0.00 0.00 0.00 82 1011.9
20260906064202 78 138 0.0 0.0 0.00 0.00 0.00 82 1011.9
20260906063132 78 130 1.0 0.0 0.00 0.00 0.00 81 1011.8
20260906061026 79 141 1.0 4.0 0.00 0.00 0.00 81 1011.8
20260906055954 78 164 1.0 4.0 0.00 0.00 0.00 80 1012.0
20260906053849 79 134 0.0 0.0 0.00 0.00 0.00 79 1012.0
20260906052821 79 134 0.0 0.0 0.00 0.00 0.00 78 1011.9
20260906051834 80 161 0.0 0.0 0.00 0.00 0.00 77 1011.9
20260906050833 80 161 0.0 0.0 0.00 0.00 0.00 76 1011.7
20260906045815 80 161 0.0 0.0 0.00 0.00 0.00 75 1011.6
20260906044816 81 161 0.0 0.0 0.00 0.00 0.00 75 1011.7
20260906043827 81 161 0.0 0.0 0.00 0.00 0.00 74 1011.8
20260906042824 82 161 0.0 4.0 0.00 0.00 0.00 73 1011.8
20260906041802 82 136 1.0 4.0 0.00 0.00 0.00 72 1011.9
20260906040806 82 136 0.0 3.0 0.00 0.00 0.00 71 1012.0
20260906035747 83 165 0.0 1.0 0.00 0.00 0.00 70 1011.8
20260906034731 83 161 1.0 7.0 0.00 0.00 0.00 70 1011.8
20260906033725 83 171 2.0 7.0 0.00 0.00 0.00 70 1011.8
20260906032733 84 173 1.0 3.0 0.00 0.00 0.00 69 1011.7
20260906031751 84 209 0.0 3.0 0.00 0.00 0.00 69 1011.6
20260906024523 85 169 1.0 5.0 0.00 0.00 0.00 68 1011.6
20260906023514 85 171 1.0 6.0 0.00 0.00 0.00 67 1011.5
20260906021350 86 143 2.0 6.0 0.00 0.00 0.00 66 1011.0
20260906020328 86 156 2.0 9.0 0.00 0.00 0.00 65 1010.9
20260906015305 86 179 3.0 9.0 0.00 0.00 0.00 65 1010.9
20260906013145 87 167 3.0 7.0 0.00 0.00 0.00 65 1010.7
20260906011100 88 160 4.0 11.0 0.00 0.00 0.00 63 1010.4
20260906010107 89 125 6.0 16.0 0.00 0.00 0.00 61 1010.3
20260906005128 90 161 8.0 16.0 0.00 0.00 0.00 59 1010.1
20260906004143 92 144 8.0 17.0 0.00 0.00 0.00 54 1010.0
20260906000909 98 157 3.0 9.0 0.00 0.00 0.00 43 1009.8
20260905235854 98 148 3.0 9.0 0.00 0.00 0.00 42 1009.6
20260905234846 99 183 1.0 6.0 0.00 0.00 0.00 41 1009.6
20260905233823 99 123 1.0 0.0 0.00 0.00 0.00 40 1009.5
20260905232824 99 146 3.0 6.0 0.00 0.00 0.00 41 1009.5
20260905231823 99 94 1.0 3.0 0.00 0.00 0.00 41 1009.5
20260905230802 99 137 0.0 2.0 0.00 0.00 0.00 41 1009.6
20260905225814 99 67 0.0 0.0 0.00 0.00 0.00 40 1009.5
20260905224821 100 72 1.0 5.0 0.00 0.00 0.00 40 1009.5
20260905223842 100 88 0.0 5.0 0.00 0.00 0.00 39 1009.4